Index of /20260503/WXO-DD/model_rdps/10km/12/051
Name Last modified Size Description
Parent Directory -
20260503T12Z_MSC_RDPS_AbsoluteVorticity_IsbL-0250_RLatLon0.09_PT051H.grib2 2026-05-03 15:09 606K
20260503T12Z_MSC_RDPS_AbsoluteVorticity_IsbL-0500_RLatLon0.09_PT051H.grib2 2026-05-03 15:09 567K
20260503T12Z_MSC_RDPS_AbsoluteVorticity_IsbL-0700_RLatLon0.09_PT051H.grib2 2026-05-03 15:09 611K
20260503T12Z_MSC_RDPS_AbsoluteVorticity_IsbL-0850_RLatLon0.09_PT051H.grib2 2026-05-03 15:09 799K
20260503T12Z_MSC_RDPS_AirTemp_AGL-120m_RLatLon0.09_PT051H.grib2 2026-05-03 15:09 383K
20260503T12Z_MSC_RDPS_AirTemp_AGL-2m_RLatLon0.09_PT051H.grib2 2026-05-03 15:09 636K
20260503T12Z_MSC_RDPS_AirTemp_AGL-40m_RLatLon0.09_PT051H.grib2 2026-05-03 15:09 393K
20260503T12Z_MSC_RDPS_AirTemp_AGL-80m_RLatLon0.09_PT051H.grib2 2026-05-03 15:09 388K
20260503T12Z_MSC_RDPS_AirTemp_IsbL-0001_RLatLon0.09_PT051H.grib2 2026-05-03 15:09 324K
20260503T12Z_MSC_RDPS_AirTemp_IsbL-0005_RLatLon0.09_PT051H.grib2 2026-05-03 15:09 291K
20260503T12Z_MSC_RDPS_AirTemp_IsbL-0010_RLatLon0.09_PT051H.grib2 2026-05-03 15:09 393K
20260503T12Z_MSC_RDPS_AirTemp_IsbL-0020_RLatLon0.09_PT051H.grib2 2026-05-03 15:09 413K
20260503T12Z_MSC_RDPS_AirTemp_IsbL-0030_RLatLon0.09_PT051H.grib2 2026-05-03 15:09 339K
20260503T12Z_MSC_RDPS_AirTemp_IsbL-0050_RLatLon0.09_PT051H.grib2 2026-05-03 15:09 317K
20260503T12Z_MSC_RDPS_AirTemp_IsbL-0100_RLatLon0.09_PT051H.grib2 2026-05-03 15:09 428K
20260503T12Z_MSC_RDPS_AirTemp_IsbL-0150_RLatLon0.09_PT051H.grib2 2026-05-03 15:09 418K
20260503T12Z_MSC_RDPS_AirTemp_IsbL-0175_RLatLon0.09_PT051H.grib2 2026-05-03 15:09 408K
20260503T12Z_MSC_RDPS_AirTemp_IsbL-0200_RLatLon0.09_PT051H.grib2 2026-05-03 15:09 411K
20260503T12Z_MSC_RDPS_AirTemp_IsbL-0225_RLatLon0.09_PT051H.grib2 2026-05-03 15:09 410K
20260503T12Z_MSC_RDPS_AirTemp_IsbL-0250_RLatLon0.09_PT051H.grib2 2026-05-03 15:09 415K
20260503T12Z_MSC_RDPS_AirTemp_IsbL-0275_RLatLon0.09_PT051H.grib2 2026-05-03 15:09 400K
20260503T12Z_MSC_RDPS_AirTemp_IsbL-0300_RLatLon0.09_PT051H.grib2 2026-05-03 15:09 408K
20260503T12Z_MSC_RDPS_AirTemp_IsbL-0350_RLatLon0.09_PT051H.grib2 2026-05-03 15:09 425K
20260503T12Z_MSC_RDPS_AirTemp_IsbL-0400_RLatLon0.09_PT051H.grib2 2026-05-03 15:09 429K
20260503T12Z_MSC_RDPS_AirTemp_IsbL-0450_RLatLon0.09_PT051H.grib2 2026-05-03 15:09 435K
20260503T12Z_MSC_RDPS_AirTemp_IsbL-0500_RLatLon0.09_PT051H.grib2 2026-05-03 15:09 445K
20260503T12Z_MSC_RDPS_AirTemp_IsbL-0550_RLatLon0.09_PT051H.grib2 2026-05-03 15:09 463K
20260503T12Z_MSC_RDPS_AirTemp_IsbL-0600_RLatLon0.09_PT051H.grib2 2026-05-03 15:09 442K
20260503T12Z_MSC_RDPS_AirTemp_IsbL-0650_RLatLon0.09_PT051H.grib2 2026-05-03 15:09 459K
20260503T12Z_MSC_RDPS_AirTemp_IsbL-0700_RLatLon0.09_PT051H.grib2 2026-05-03 15:09 485K
20260503T12Z_MSC_RDPS_AirTemp_IsbL-0750_RLatLon0.09_PT051H.grib2 2026-05-03 15:09 527K
20260503T12Z_MSC_RDPS_AirTemp_IsbL-0800_RLatLon0.09_PT051H.grib2 2026-05-03 15:09 584K
20260503T12Z_MSC_RDPS_AirTemp_IsbL-0850_RLatLon0.09_PT051H.grib2 2026-05-03 15:09 647K
20260503T12Z_MSC_RDPS_AirTemp_IsbL-0875_RLatLon0.09_PT051H.grib2 2026-05-03 15:09 667K
20260503T12Z_MSC_RDPS_AirTemp_IsbL-0900_RLatLon0.09_PT051H.grib2 2026-05-03 15:09 677K
20260503T12Z_MSC_RDPS_AirTemp_IsbL-0925_RLatLon0.09_PT051H.grib2 2026-05-03 15:09 669K
20260503T12Z_MSC_RDPS_AirTemp_IsbL-0950_RLatLon0.09_PT051H.grib2 2026-05-03 15:09 532K
20260503T12Z_MSC_RDPS_AirTemp_IsbL-0970_RLatLon0.09_PT051H.grib2 2026-05-03 15:09 526K
20260503T12Z_MSC_RDPS_AirTemp_IsbL-0985_RLatLon0.09_PT051H.grib2 2026-05-03 15:09 516K
20260503T12Z_MSC_RDPS_AirTemp_IsbL-1000_RLatLon0.09_PT051H.grib2 2026-05-03 15:09 502K
20260503T12Z_MSC_RDPS_AirTemp_IsbL-1015_RLatLon0.09_PT051H.grib2 2026-05-03 15:09 509K
20260503T12Z_MSC_RDPS_Albedo_Sfc_RLatLon0.09_PT051H.grib2 2026-05-03 15:09 158K
20260503T12Z_MSC_RDPS_CAPE_Sfc_RLatLon0.09_PT051H.grib2 2026-05-03 15:09 1.8M
20260503T12Z_MSC_RDPS_CIN_Sfc_RLatLon0.09_PT051H.grib2 2026-05-03 15:09 1.2M
20260503T12Z_MSC_RDPS_CloudWater_EAtm_RLatLon0.09_PT051H.grib2 2026-05-03 15:09 222K
20260503T12Z_MSC_RDPS_ConvectivePrecip-Accum_Sfc_RLatLon0.09_PT051H.grib2 2026-05-03 15:09 1.1M
20260503T12Z_MSC_RDPS_DewPointDepression_AGL-2m_RLatLon0.09_PT051H.grib2 2026-05-03 15:09 420K
20260503T12Z_MSC_RDPS_DewPointDepression_IsbL-0001_RLatLon0.09_PT051H.grib2 2026-05-03 15:09 193
20260503T12Z_MSC_RDPS_DewPointDepression_IsbL-0005_RLatLon0.09_PT051H.grib2 2026-05-03 15:09 193
20260503T12Z_MSC_RDPS_DewPointDepression_IsbL-0010_RLatLon0.09_PT051H.grib2 2026-05-03 15:09 193
20260503T12Z_MSC_RDPS_DewPointDepression_IsbL-0020_RLatLon0.09_PT051H.grib2 2026-05-03 15:09 193
20260503T12Z_MSC_RDPS_DewPointDepression_IsbL-0030_RLatLon0.09_PT051H.grib2 2026-05-03 15:09 193
20260503T12Z_MSC_RDPS_DewPointDepression_IsbL-0050_RLatLon0.09_PT051H.grib2 2026-05-03 15:09 106K
20260503T12Z_MSC_RDPS_DewPointDepression_IsbL-0100_RLatLon0.09_PT051H.grib2 2026-05-03 15:09 115K
20260503T12Z_MSC_RDPS_DewPointDepression_IsbL-0150_RLatLon0.09_PT051H.grib2 2026-05-03 15:09 143K
20260503T12Z_MSC_RDPS_DewPointDepression_IsbL-0175_RLatLon0.09_PT051H.grib2 2026-05-03 15:09 176K
20260503T12Z_MSC_RDPS_DewPointDepression_IsbL-0200_RLatLon0.09_PT051H.grib2 2026-05-03 15:09 214K
20260503T12Z_MSC_RDPS_DewPointDepression_IsbL-0225_RLatLon0.09_PT051H.grib2 2026-05-03 15:09 248K
20260503T12Z_MSC_RDPS_DewPointDepression_IsbL-0250_RLatLon0.09_PT051H.grib2 2026-05-03 15:09 289K
20260503T12Z_MSC_RDPS_DewPointDepression_IsbL-0275_RLatLon0.09_PT051H.grib2 2026-05-03 15:09 301K
20260503T12Z_MSC_RDPS_DewPointDepression_IsbL-0300_RLatLon0.09_PT051H.grib2 2026-05-03 15:09 321K
20260503T12Z_MSC_RDPS_DewPointDepression_IsbL-0350_RLatLon0.09_PT051H.grib2 2026-05-03 15:09 328K
20260503T12Z_MSC_RDPS_DewPointDepression_IsbL-0400_RLatLon0.09_PT051H.grib2 2026-05-03 15:09 338K
20260503T12Z_MSC_RDPS_DewPointDepression_IsbL-0450_RLatLon0.09_PT051H.grib2 2026-05-03 15:09 341K
20260503T12Z_MSC_RDPS_DewPointDepression_IsbL-0500_RLatLon0.09_PT051H.grib2 2026-05-03 15:09 347K
20260503T12Z_MSC_RDPS_DewPointDepression_IsbL-0550_RLatLon0.09_PT051H.grib2 2026-05-03 15:09 358K
20260503T12Z_MSC_RDPS_DewPointDepression_IsbL-0600_RLatLon0.09_PT051H.grib2 2026-05-03 15:09 365K
20260503T12Z_MSC_RDPS_DewPointDepression_IsbL-0650_RLatLon0.09_PT051H.grib2 2026-05-03 15:09 369K
20260503T12Z_MSC_RDPS_DewPointDepression_IsbL-0700_RLatLon0.09_PT051H.grib2 2026-05-03 15:09 382K
20260503T12Z_MSC_RDPS_DewPointDepression_IsbL-0750_RLatLon0.09_PT051H.grib2 2026-05-03 15:09 406K
20260503T12Z_MSC_RDPS_DewPointDepression_IsbL-0800_RLatLon0.09_PT051H.grib2 2026-05-03 15:09 442K
20260503T12Z_MSC_RDPS_DewPointDepression_IsbL-0850_RLatLon0.09_PT051H.grib2 2026-05-03 15:09 477K
20260503T12Z_MSC_RDPS_DewPointDepression_IsbL-0875_RLatLon0.09_PT051H.grib2 2026-05-03 15:09 479K
20260503T12Z_MSC_RDPS_DewPointDepression_IsbL-0900_RLatLon0.09_PT051H.grib2 2026-05-03 15:09 468K
20260503T12Z_MSC_RDPS_DewPointDepression_IsbL-0925_RLatLon0.09_PT051H.grib2 2026-05-03 15:09 454K
20260503T12Z_MSC_RDPS_DewPointDepression_IsbL-0950_RLatLon0.09_PT051H.grib2 2026-05-03 15:09 447K
20260503T12Z_MSC_RDPS_DewPointDepression_IsbL-0970_RLatLon0.09_PT051H.grib2 2026-05-03 15:09 444K
20260503T12Z_MSC_RDPS_DewPointDepression_IsbL-0985_RLatLon0.09_PT051H.grib2 2026-05-03 15:09 443K
20260503T12Z_MSC_RDPS_DewPointDepression_IsbL-1000_RLatLon0.09_PT051H.grib2 2026-05-03 15:09 439K
20260503T12Z_MSC_RDPS_DewPointDepression_IsbL-1015_RLatLon0.09_PT051H.grib2 2026-05-03 15:09 433K
20260503T12Z_MSC_RDPS_DewPoint_AGL-2m_RLatLon0.09_PT051H.grib2 2026-05-03 15:09 401K
20260503T12Z_MSC_RDPS_DownwardLongwaveRadiationFlux-Accum_Sfc_RLatLon0.09_PT051H.grib2 2026-05-03 15:09 379K
20260503T12Z_MSC_RDPS_DownwardShortwaveRadiationFlux-Accum_NTAtm_RLatLon0.09_PT051H.grib2 2026-05-03 15:09 131K
20260503T12Z_MSC_RDPS_DownwardShortwaveRadiationFlux-Accum_Sfc_RLatLon0.09_PT051H.grib2 2026-05-03 15:09 577K
20260503T12Z_MSC_RDPS_FreezingRain-Accum1h_Sfc_RLatLon0.09_PT051H.grib2 2026-05-03 15:09 42K
20260503T12Z_MSC_RDPS_FreezingRain-Accum3h_Sfc_RLatLon0.09_PT051H.grib2 2026-05-03 15:09 59K
20260503T12Z_MSC_RDPS_FreezingRain-Accum_Sfc_RLatLon0.09_PT051H.grib2 2026-05-03 15:09 166K
20260503T12Z_MSC_RDPS_GeopotentialHeight_IsbL-0001_RLatLon0.09_PT051H.grib2 2026-05-03 15:09 354K
20260503T12Z_MSC_RDPS_GeopotentialHeight_IsbL-0005_RLatLon0.09_PT051H.grib2 2026-05-03 15:09 311K
20260503T12Z_MSC_RDPS_GeopotentialHeight_IsbL-0010_RLatLon0.09_PT051H.grib2 2026-05-03 15:09 311K
20260503T12Z_MSC_RDPS_GeopotentialHeight_IsbL-0020_RLatLon0.09_PT051H.grib2 2026-05-03 15:09 409K
20260503T12Z_MSC_RDPS_GeopotentialHeight_IsbL-0030_RLatLon0.09_PT051H.grib2 2026-05-03 15:09 410K
20260503T12Z_MSC_RDPS_GeopotentialHeight_IsbL-0050_RLatLon0.09_PT051H.grib2 2026-05-03 15:09 313K
20260503T12Z_MSC_RDPS_GeopotentialHeight_IsbL-0100_RLatLon0.09_PT051H.grib2 2026-05-03 15:09 287K
20260503T12Z_MSC_RDPS_GeopotentialHeight_IsbL-0150_RLatLon0.09_PT051H.grib2 2026-05-03 15:09 229K
20260503T12Z_MSC_RDPS_GeopotentialHeight_IsbL-0175_RLatLon0.09_PT051H.grib2 2026-05-03 15:09 232K
20260503T12Z_MSC_RDPS_GeopotentialHeight_IsbL-0200_RLatLon0.09_PT051H.grib2 2026-05-03 15:09 235K
20260503T12Z_MSC_RDPS_GeopotentialHeight_IsbL-0225_RLatLon0.09_PT051H.grib2 2026-05-03 15:09 236K
20260503T12Z_MSC_RDPS_GeopotentialHeight_IsbL-0250_RLatLon0.09_PT051H.grib2 2026-05-03 15:09 237K
20260503T12Z_MSC_RDPS_GeopotentialHeight_IsbL-0275_RLatLon0.09_PT051H.grib2 2026-05-03 15:09 236K
20260503T12Z_MSC_RDPS_GeopotentialHeight_IsbL-0300_RLatLon0.09_PT051H.grib2 2026-05-03 15:09 236K
20260503T12Z_MSC_RDPS_GeopotentialHeight_IsbL-0350_RLatLon0.09_PT051H.grib2 2026-05-03 15:09 231K
20260503T12Z_MSC_RDPS_GeopotentialHeight_IsbL-0400_RLatLon0.09_PT051H.grib2 2026-05-03 15:09 229K
20260503T12Z_MSC_RDPS_GeopotentialHeight_IsbL-0450_RLatLon0.09_PT051H.grib2 2026-05-03 15:09 299K
20260503T12Z_MSC_RDPS_GeopotentialHeight_IsbL-0500_RLatLon0.09_PT051H.grib2 2026-05-03 15:09 295K
20260503T12Z_MSC_RDPS_GeopotentialHeight_IsbL-0550_RLatLon0.09_PT051H.grib2 2026-05-03 15:09 292K
20260503T12Z_MSC_RDPS_GeopotentialHeight_IsbL-0600_RLatLon0.09_PT051H.grib2 2026-05-03 15:09 289K
20260503T12Z_MSC_RDPS_GeopotentialHeight_IsbL-0650_RLatLon0.09_PT051H.grib2 2026-05-03 15:09 258K
20260503T12Z_MSC_RDPS_GeopotentialHeight_IsbL-0700_RLatLon0.09_PT051H.grib2 2026-05-03 15:09 258K
20260503T12Z_MSC_RDPS_GeopotentialHeight_IsbL-0750_RLatLon0.09_PT051H.grib2 2026-05-03 15:09 260K
20260503T12Z_MSC_RDPS_GeopotentialHeight_IsbL-0800_RLatLon0.09_PT051H.grib2 2026-05-03 15:09 355K
20260503T12Z_MSC_RDPS_GeopotentialHeight_IsbL-0850_RLatLon0.09_PT051H.grib2 2026-05-03 15:09 366K
20260503T12Z_MSC_RDPS_GeopotentialHeight_IsbL-0875_RLatLon0.09_PT051H.grib2 2026-05-03 15:09 367K
20260503T12Z_MSC_RDPS_GeopotentialHeight_IsbL-0900_RLatLon0.09_PT051H.grib2 2026-05-03 15:09 282K
20260503T12Z_MSC_RDPS_GeopotentialHeight_IsbL-0925_RLatLon0.09_PT051H.grib2 2026-05-03 15:09 285K
20260503T12Z_MSC_RDPS_GeopotentialHeight_IsbL-0950_RLatLon0.09_PT051H.grib2 2026-05-03 15:09 286K
20260503T12Z_MSC_RDPS_GeopotentialHeight_IsbL-0970_RLatLon0.09_PT051H.grib2 2026-05-03 15:09 291K
20260503T12Z_MSC_RDPS_GeopotentialHeight_IsbL-0985_RLatLon0.09_PT051H.grib2 2026-05-03 15:09 298K
20260503T12Z_MSC_RDPS_GeopotentialHeight_IsbL-1000_RLatLon0.09_PT051H.grib2 2026-05-03 15:09 308K
20260503T12Z_MSC_RDPS_GeopotentialHeight_IsbL-1015_RLatLon0.09_PT051H.grib2 2026-05-03 15:09 320K
20260503T12Z_MSC_RDPS_Humidex_Sfc_RLatLon0.09_PT051H.grib2 2026-05-03 15:09 2.4M
20260503T12Z_MSC_RDPS_IcePellets-Accum1h_Sfc_RLatLon0.09_PT051H.grib2 2026-05-03 15:09 13K
20260503T12Z_MSC_RDPS_IcePellets-Accum3h_Sfc_RLatLon0.09_PT051H.grib2 2026-05-03 15:09 15K
20260503T12Z_MSC_RDPS_IcePellets-Accum_Sfc_RLatLon0.09_PT051H.grib2 2026-05-03 15:09 36K
20260503T12Z_MSC_RDPS_KIndex_Sfc_RLatLon0.09_PT051H.grib2 2026-05-03 15:09 2.5M
20260503T12Z_MSC_RDPS_LatentHeatNetFlux_Sfc_RLatLon0.09_PT051H.grib2 2026-05-03 15:09 390K
20260503T12Z_MSC_RDPS_LiftedIndex-MU-VT_IsbL-0500_RLatLon0.09_PT051H.grib2 2026-05-03 15:09 2.4M
20260503T12Z_MSC_RDPS_NetLongwaveRadiationFlux-Accum_Sfc_RLatLon0.09_PT051H.grib2 2026-05-03 15:09 559K
20260503T12Z_MSC_RDPS_NetShortwaveRadiationFlux-Accum_Sfc_RLatLon0.09_PT051H.grib2 2026-05-03 15:09 576K
20260503T12Z_MSC_RDPS_PlanetaryBoundaryLayerHeight_Sfc_RLatLon0.09_PT051H.grib2 2026-05-03 15:09 1.2M
20260503T12Z_MSC_RDPS_Precip-Accum1h_Sfc_RLatLon0.09_PT051H.grib2 2026-05-03 15:09 1.3M
20260503T12Z_MSC_RDPS_Precip-Accum3h_Sfc_RLatLon0.09_PT051H.grib2 2026-05-03 15:09 1.5M
20260503T12Z_MSC_RDPS_Precip-Accum_Sfc_RLatLon0.09_PT051H.grib2 2026-05-03 15:09 2.1M
20260503T12Z_MSC_RDPS_PrecipRate_Sfc_RLatLon0.09_PT051H.grib2 2026-05-03 15:09 185K
20260503T12Z_MSC_RDPS_PrecipType-Instant_Sfc_RLatLon0.09_PT051H.grib2 2026-05-03 15:09 600K
20260503T12Z_MSC_RDPS_Pressure-Trend3h_Sfc_RLatLon0.09_PT051H.grib2 2026-05-03 15:09 1.2M
20260503T12Z_MSC_RDPS_Pressure_MSL_RLatLon0.09_PT051H.grib2 2026-05-03 15:09 331K
20260503T12Z_MSC_RDPS_Pressure_PVU-1.5_RLatLon0.09_PT051H.grib2 2026-05-03 15:09 2.5M
20260503T12Z_MSC_RDPS_Pressure_PVU-1_RLatLon0.09_PT051H.grib2 2026-05-03 15:09 2.4M
20260503T12Z_MSC_RDPS_Pressure_PVU-2_RLatLon0.09_PT051H.grib2 2026-05-03 15:09 2.4M
20260503T12Z_MSC_RDPS_Pressure_Sfc_RLatLon0.09_PT051H.grib2 2026-05-03 15:09 499K
20260503T12Z_MSC_RDPS_RadiativeTemp_Sfc_RLatLon0.09_PT051H.grib2 2026-05-03 15:09 311K
20260503T12Z_MSC_RDPS_Rain-Accum1h_Sfc_RLatLon0.09_PT051H.grib2 2026-05-03 15:09 651K
20260503T12Z_MSC_RDPS_Rain-Accum3h_Sfc_RLatLon0.09_PT051H.grib2 2026-05-03 15:09 793K
20260503T12Z_MSC_RDPS_Rain-Accum_Sfc_RLatLon0.09_PT051H.grib2 2026-05-03 15:09 1.7M
20260503T12Z_MSC_RDPS_RelativeHumidity_AGL-2m_RLatLon0.09_PT051H.grib2 2026-05-03 15:09 1.0M
20260503T12Z_MSC_RDPS_RelativeHumidity_IsbL-0010_RLatLon0.09_PT051H.grib2 2026-05-03 15:09 693K
20260503T12Z_MSC_RDPS_RelativeHumidity_IsbL-0020_RLatLon0.09_PT051H.grib2 2026-05-03 15:09 747K
20260503T12Z_MSC_RDPS_RelativeHumidity_IsbL-0030_RLatLon0.09_PT051H.grib2 2026-05-03 15:09 602K
20260503T12Z_MSC_RDPS_RelativeHumidity_IsbL-0050_RLatLon0.09_PT051H.grib2 2026-05-03 15:09 359K
20260503T12Z_MSC_RDPS_RelativeHumidity_IsbL-0100_RLatLon0.09_PT051H.grib2 2026-05-03 15:09 279K
20260503T12Z_MSC_RDPS_RelativeHumidity_IsbL-0150_RLatLon0.09_PT051H.grib2 2026-05-03 15:09 412K
20260503T12Z_MSC_RDPS_RelativeHumidity_IsbL-0175_RLatLon0.09_PT051H.grib2 2026-05-03 15:09 477K
20260503T12Z_MSC_RDPS_RelativeHumidity_IsbL-0200_RLatLon0.09_PT051H.grib2 2026-05-03 15:09 552K
20260503T12Z_MSC_RDPS_RelativeHumidity_IsbL-0225_RLatLon0.09_PT051H.grib2 2026-05-03 15:09 610K
20260503T12Z_MSC_RDPS_RelativeHumidity_IsbL-0250_RLatLon0.09_PT051H.grib2 2026-05-03 15:09 674K
20260503T12Z_MSC_RDPS_RelativeHumidity_IsbL-0275_RLatLon0.09_PT051H.grib2 2026-05-03 15:09 702K
20260503T12Z_MSC_RDPS_RelativeHumidity_IsbL-0300_RLatLon0.09_PT051H.grib2 2026-05-03 15:09 746K
20260503T12Z_MSC_RDPS_RelativeHumidity_IsbL-0350_RLatLon0.09_PT051H.grib2 2026-05-03 15:09 774K
20260503T12Z_MSC_RDPS_RelativeHumidity_IsbL-0400_RLatLon0.09_PT051H.grib2 2026-05-03 15:09 790K
20260503T12Z_MSC_RDPS_RelativeHumidity_IsbL-0450_RLatLon0.09_PT051H.grib2 2026-05-03 15:09 792K
20260503T12Z_MSC_RDPS_RelativeHumidity_IsbL-0500_RLatLon0.09_PT051H.grib2 2026-05-03 15:09 794K
20260503T12Z_MSC_RDPS_RelativeHumidity_IsbL-0550_RLatLon0.09_PT051H.grib2 2026-05-03 15:09 819K
20260503T12Z_MSC_RDPS_RelativeHumidity_IsbL-0600_RLatLon0.09_PT051H.grib2 2026-05-03 15:09 832K
20260503T12Z_MSC_RDPS_RelativeHumidity_IsbL-0650_RLatLon0.09_PT051H.grib2 2026-05-03 15:09 845K
20260503T12Z_MSC_RDPS_RelativeHumidity_IsbL-0700_RLatLon0.09_PT051H.grib2 2026-05-03 15:09 873K
20260503T12Z_MSC_RDPS_RelativeHumidity_IsbL-0750_RLatLon0.09_PT051H.grib2 2026-05-03 15:09 910K
20260503T12Z_MSC_RDPS_RelativeHumidity_IsbL-0800_RLatLon0.09_PT051H.grib2 2026-05-03 15:09 1.0M
20260503T12Z_MSC_RDPS_RelativeHumidity_IsbL-0850_RLatLon0.09_PT051H.grib2 2026-05-03 15:09 1.0M
20260503T12Z_MSC_RDPS_RelativeHumidity_IsbL-0875_RLatLon0.09_PT051H.grib2 2026-05-03 15:09 1.1M
20260503T12Z_MSC_RDPS_RelativeHumidity_IsbL-0900_RLatLon0.09_PT051H.grib2 2026-05-03 15:09 1.1M
20260503T12Z_MSC_RDPS_RelativeHumidity_IsbL-0925_RLatLon0.09_PT051H.grib2 2026-05-03 15:09 1.1M
20260503T12Z_MSC_RDPS_RelativeHumidity_IsbL-0950_RLatLon0.09_PT051H.grib2 2026-05-03 15:09 1.1M
20260503T12Z_MSC_RDPS_RelativeHumidity_IsbL-0970_RLatLon0.09_PT051H.grib2 2026-05-03 15:09 1.1M
20260503T12Z_MSC_RDPS_RelativeHumidity_IsbL-0985_RLatLon0.09_PT051H.grib2 2026-05-03 15:09 1.1M
20260503T12Z_MSC_RDPS_RelativeHumidity_IsbL-1000_RLatLon0.09_PT051H.grib2 2026-05-03 15:09 1.0M
20260503T12Z_MSC_RDPS_RelativeHumidity_IsbL-1015_RLatLon0.09_PT051H.grib2 2026-05-03 15:09 1.0M
20260503T12Z_MSC_RDPS_Runoff-Accum_Sfc_RLatLon0.09_PT051H.grib2 2026-05-03 15:09 55K
20260503T12Z_MSC_RDPS_SWEATIndex_Sfc_RLatLon0.09_PT051H.grib2 2026-05-03 15:09 2.4M
20260503T12Z_MSC_RDPS_SeeingIndex_EAtm_RLatLon0.09_PT051H.grib2 2026-05-03 15:09 1.0M
20260503T12Z_MSC_RDPS_SensibleHeatNetFlux_Sfc_RLatLon0.09_PT051H.grib2 2026-05-03 15:09 361K
20260503T12Z_MSC_RDPS_ShowalterIndex_IsbL-0500_RLatLon0.09_PT051H.grib2 2026-05-03 15:09 2.6M
20260503T12Z_MSC_RDPS_SkyTransparencyIndex_EAtm_RLatLon0.09_PT051H.grib2 2026-05-03 15:09 700K
20260503T12Z_MSC_RDPS_Snow-Accum1h_Sfc_RLatLon0.09_PT051H.grib2 2026-05-03 15:09 471K
20260503T12Z_MSC_RDPS_Snow-Accum3h_Sfc_RLatLon0.09_PT051H.grib2 2026-05-03 15:09 476K
20260503T12Z_MSC_RDPS_Snow-Accum_Sfc_RLatLon0.09_PT051H.grib2 2026-05-03 15:09 741K
20260503T12Z_MSC_RDPS_SnowDensity_Sfc_RLatLon0.09_PT051H.grib2 2026-05-03 15:09 174K
20260503T12Z_MSC_RDPS_SnowDepth_Sfc_RLatLon0.09_PT051H.grib2 2026-05-03 15:09 655K
20260503T12Z_MSC_RDPS_SoilTemp_DBS-0to10cm_RLatLon0.09_PT051H.grib2 2026-05-03 15:09 238K
20260503T12Z_MSC_RDPS_SoilTemp_Sfc_RLatLon0.09_PT051H.grib2 2026-05-03 15:09 284K
20260503T12Z_MSC_RDPS_SoilVolumetricIceContent_Sfc_RLatLon0.09_PT051H.grib2 2026-05-03 15:09 153K
20260503T12Z_MSC_RDPS_SoilVolumetricWaterContent_DBS-0to10cm_RLatLon0.09_PT051H.grib2 2026-05-03 15:09 277K
20260503T12Z_MSC_RDPS_SoilVolumetricWaterContent_DBS-0to1cm_RLatLon0.09_PT051H.grib2 2026-05-03 15:09 341K
20260503T12Z_MSC_RDPS_SpecificHumidity_AGL-120m_RLatLon0.09_PT051H.grib2 2026-05-03 15:09 503K
20260503T12Z_MSC_RDPS_SpecificHumidity_AGL-2m_RLatLon0.09_PT051H.grib2 2026-05-03 15:09 674K
20260503T12Z_MSC_RDPS_SpecificHumidity_AGL-40m_RLatLon0.09_PT051H.grib2 2026-05-03 15:09 509K
20260503T12Z_MSC_RDPS_SpecificHumidity_AGL-80m_RLatLon0.09_PT051H.grib2 2026-05-03 15:09 505K
20260503T12Z_MSC_RDPS_SpecificHumidity_IsbL-0001_RLatLon0.09_PT051H.grib2 2026-05-03 15:09 410K
20260503T12Z_MSC_RDPS_SpecificHumidity_IsbL-0005_RLatLon0.09_PT051H.grib2 2026-05-03 15:09 371K
20260503T12Z_MSC_RDPS_SpecificHumidity_IsbL-0010_RLatLon0.09_PT051H.grib2 2026-05-03 15:09 400K
20260503T12Z_MSC_RDPS_SpecificHumidity_IsbL-0020_RLatLon0.09_PT051H.grib2 2026-05-03 15:09 382K
20260503T12Z_MSC_RDPS_SpecificHumidity_IsbL-0030_RLatLon0.09_PT051H.grib2 2026-05-03 15:09 375K
20260503T12Z_MSC_RDPS_SpecificHumidity_IsbL-0050_RLatLon0.09_PT051H.grib2 2026-05-03 15:09 482K
20260503T12Z_MSC_RDPS_SpecificHumidity_IsbL-0100_RLatLon0.09_PT051H.grib2 2026-05-03 15:09 417K
20260503T12Z_MSC_RDPS_SpecificHumidity_IsbL-0150_RLatLon0.09_PT051H.grib2 2026-05-03 15:09 448K
20260503T12Z_MSC_RDPS_SpecificHumidity_IsbL-0175_RLatLon0.09_PT051H.grib2 2026-05-03 15:09 438K
20260503T12Z_MSC_RDPS_SpecificHumidity_IsbL-0200_RLatLon0.09_PT051H.grib2 2026-05-03 15:09 453K
20260503T12Z_MSC_RDPS_SpecificHumidity_IsbL-0225_RLatLon0.09_PT051H.grib2 2026-05-03 15:09 448K
20260503T12Z_MSC_RDPS_SpecificHumidity_IsbL-0250_RLatLon0.09_PT051H.grib2 2026-05-03 15:09 553K
20260503T12Z_MSC_RDPS_SpecificHumidity_IsbL-0275_RLatLon0.09_PT051H.grib2 2026-05-03 15:09 472K
20260503T12Z_MSC_RDPS_SpecificHumidity_IsbL-0300_RLatLon0.09_PT051H.grib2 2026-05-03 15:09 546K
20260503T12Z_MSC_RDPS_SpecificHumidity_IsbL-0350_RLatLon0.09_PT051H.grib2 2026-05-03 15:09 543K
20260503T12Z_MSC_RDPS_SpecificHumidity_IsbL-0400_RLatLon0.09_PT051H.grib2 2026-05-03 15:09 525K
20260503T12Z_MSC_RDPS_SpecificHumidity_IsbL-0450_RLatLon0.09_PT051H.grib2 2026-05-03 15:09 573K
20260503T12Z_MSC_RDPS_SpecificHumidity_IsbL-0500_RLatLon0.09_PT051H.grib2 2026-05-03 15:09 505K
20260503T12Z_MSC_RDPS_SpecificHumidity_IsbL-0550_RLatLon0.09_PT051H.grib2 2026-05-03 15:09 575K
20260503T12Z_MSC_RDPS_SpecificHumidity_IsbL-0600_RLatLon0.09_PT051H.grib2 2026-05-03 15:09 621K
20260503T12Z_MSC_RDPS_SpecificHumidity_IsbL-0650_RLatLon0.09_PT051H.grib2 2026-05-03 15:09 537K
20260503T12Z_MSC_RDPS_SpecificHumidity_IsbL-0700_RLatLon0.09_PT051H.grib2 2026-05-03 15:09 583K
20260503T12Z_MSC_RDPS_SpecificHumidity_IsbL-0750_RLatLon0.09_PT051H.grib2 2026-05-03 15:09 641K
20260503T12Z_MSC_RDPS_SpecificHumidity_IsbL-0800_RLatLon0.09_PT051H.grib2 2026-05-03 15:09 727K
20260503T12Z_MSC_RDPS_SpecificHumidity_IsbL-0850_RLatLon0.09_PT051H.grib2 2026-05-03 15:09 811K
20260503T12Z_MSC_RDPS_SpecificHumidity_IsbL-0875_RLatLon0.09_PT051H.grib2 2026-05-03 15:09 839K
20260503T12Z_MSC_RDPS_SpecificHumidity_IsbL-0900_RLatLon0.09_PT051H.grib2 2026-05-03 15:09 852K
20260503T12Z_MSC_RDPS_SpecificHumidity_IsbL-0925_RLatLon0.09_PT051H.grib2 2026-05-03 15:09 852K
20260503T12Z_MSC_RDPS_SpecificHumidity_IsbL-0950_RLatLon0.09_PT051H.grib2 2026-05-03 15:09 850K
20260503T12Z_MSC_RDPS_SpecificHumidity_IsbL-0970_RLatLon0.09_PT051H.grib2 2026-05-03 15:09 706K
20260503T12Z_MSC_RDPS_SpecificHumidity_IsbL-0985_RLatLon0.09_PT051H.grib2 2026-05-03 15:09 703K
20260503T12Z_MSC_RDPS_SpecificHumidity_IsbL-1000_RLatLon0.09_PT051H.grib2 2026-05-03 15:09 699K
20260503T12Z_MSC_RDPS_SpecificHumidity_IsbL-1015_RLatLon0.09_PT051H.grib2 2026-05-03 15:09 691K
20260503T12Z_MSC_RDPS_SpecificHumidity_Sfc_RLatLon0.09_PT051H.grib2 2026-05-03 15:09 316K
20260503T12Z_MSC_RDPS_StormRelativeHelicity_EtaL-10000_RLatLon0.09_PT051H.grib2 2026-05-03 15:09 1.1M
20260503T12Z_MSC_RDPS_StormSeverityIndex_EtaL-10000_RLatLon0.09_PT051H.grib2 2026-05-03 15:09 1.1M
20260503T12Z_MSC_RDPS_Thickness_IsbL-0850to0700_RLatLon0.09_PT051H.grib2 2026-05-03 15:09 179K
20260503T12Z_MSC_RDPS_Thickness_IsbL-1000to0500_RLatLon0.09_PT051H.grib2 2026-05-03 15:09 200K
20260503T12Z_MSC_RDPS_Thickness_IsbL-1000to0850_RLatLon0.09_PT051H.grib2 2026-05-03 15:09 265K
20260503T12Z_MSC_RDPS_TotalCloudCover_Sfc_RLatLon0.09_PT051H.grib2 2026-05-03 15:09 662K
20260503T12Z_MSC_RDPS_TotalTotalsIndex_Sfc_RLatLon0.09_PT051H.grib2 2026-05-03 15:09 2.4M
20260503T12Z_MSC_RDPS_UVIndex-ClearSky_Sfc_RLatLon0.09_PT051H.grib2 2026-05-03 15:09 182K
20260503T12Z_MSC_RDPS_UVIndex_Sfc_RLatLon0.09_PT051H.grib2 2026-05-03 15:09 439K
20260503T12Z_MSC_RDPS_UpwardLongwaveRadiationFlux_NTAtm_RLatLon0.09_PT051H.grib2 2026-05-03 15:09 489K
20260503T12Z_MSC_RDPS_UpwardShortwaveRadiationFlux_NTAtm_RLatLon0.09_PT051H.grib2 2026-05-03 15:09 483K
20260503T12Z_MSC_RDPS_VerticalVelocity_IsbL-0250_RLatLon0.09_PT051H.grib2 2026-05-03 15:09 556K
20260503T12Z_MSC_RDPS_VerticalVelocity_IsbL-0500_RLatLon0.09_PT051H.grib2 2026-05-03 15:09 554K
20260503T12Z_MSC_RDPS_VerticalVelocity_IsbL-0700_RLatLon0.09_PT051H.grib2 2026-05-03 15:09 601K
20260503T12Z_MSC_RDPS_VerticalVelocity_IsbL-0850_RLatLon0.09_PT051H.grib2 2026-05-03 15:09 708K
20260503T12Z_MSC_RDPS_VerticalWindShear_EtaL-6500_RLatLon0.09_PT051H.grib2 2026-05-03 15:09 1.2M
20260503T12Z_MSC_RDPS_WindChill_Sfc_RLatLon0.09_PT051H.grib2 2026-05-03 15:09 1.2M
20260503T12Z_MSC_RDPS_WindDir_AGL-10m_RLatLon0.09_PT051H.grib2 2026-05-03 15:09 967K
20260503T12Z_MSC_RDPS_WindDir_AGL-120m_RLatLon0.09_PT051H.grib2 2026-05-03 15:09 609K
20260503T12Z_MSC_RDPS_WindDir_AGL-40m_RLatLon0.09_PT051H.grib2 2026-05-03 15:09 633K
20260503T12Z_MSC_RDPS_WindDir_AGL-80m_RLatLon0.09_PT051H.grib2 2026-05-03 15:09 619K
20260503T12Z_MSC_RDPS_WindDir_IsbL-0001_RLatLon0.09_PT051H.grib2 2026-05-03 15:09 320K
20260503T12Z_MSC_RDPS_WindDir_IsbL-0005_RLatLon0.09_PT051H.grib2 2026-05-03 15:09 393K
20260503T12Z_MSC_RDPS_WindDir_IsbL-0010_RLatLon0.09_PT051H.grib2 2026-05-03 15:09 399K
20260503T12Z_MSC_RDPS_WindDir_IsbL-0020_RLatLon0.09_PT051H.grib2 2026-05-03 15:09 418K
20260503T12Z_MSC_RDPS_WindDir_IsbL-0030_RLatLon0.09_PT051H.grib2 2026-05-03 15:09 422K
20260503T12Z_MSC_RDPS_WindDir_IsbL-0050_RLatLon0.09_PT051H.grib2 2026-05-03 15:09 427K
20260503T12Z_MSC_RDPS_WindDir_IsbL-0100_RLatLon0.09_PT051H.grib2 2026-05-03 15:09 425K
20260503T12Z_MSC_RDPS_WindDir_IsbL-0150_RLatLon0.09_PT051H.grib2 2026-05-03 15:09 405K
20260503T12Z_MSC_RDPS_WindDir_IsbL-0175_RLatLon0.09_PT051H.grib2 2026-05-03 15:09 426K
20260503T12Z_MSC_RDPS_WindDir_IsbL-0200_RLatLon0.09_PT051H.grib2 2026-05-03 15:09 447K
20260503T12Z_MSC_RDPS_WindDir_IsbL-0225_RLatLon0.09_PT051H.grib2 2026-05-03 15:09 447K
20260503T12Z_MSC_RDPS_WindDir_IsbL-0250_RLatLon0.09_PT051H.grib2 2026-05-03 15:09 449K
20260503T12Z_MSC_RDPS_WindDir_IsbL-0275_RLatLon0.09_PT051H.grib2 2026-05-03 15:09 474K
20260503T12Z_MSC_RDPS_WindDir_IsbL-0300_RLatLon0.09_PT051H.grib2 2026-05-03 15:09 472K
20260503T12Z_MSC_RDPS_WindDir_IsbL-0350_RLatLon0.09_PT051H.grib2 2026-05-03 15:09 495K
20260503T12Z_MSC_RDPS_WindDir_IsbL-0400_RLatLon0.09_PT051H.grib2 2026-05-03 15:09 508K
20260503T12Z_MSC_RDPS_WindDir_IsbL-0450_RLatLon0.09_PT051H.grib2 2026-05-03 15:09 531K
20260503T12Z_MSC_RDPS_WindDir_IsbL-0500_RLatLon0.09_PT051H.grib2 2026-05-03 15:09 536K
20260503T12Z_MSC_RDPS_WindDir_IsbL-0550_RLatLon0.09_PT051H.grib2 2026-05-03 15:09 548K
20260503T12Z_MSC_RDPS_WindDir_IsbL-0600_RLatLon0.09_PT051H.grib2 2026-05-03 15:09 570K
20260503T12Z_MSC_RDPS_WindDir_IsbL-0650_RLatLon0.09_PT051H.grib2 2026-05-03 15:09 612K
20260503T12Z_MSC_RDPS_WindDir_IsbL-0700_RLatLon0.09_PT051H.grib2 2026-05-03 15:09 661K
20260503T12Z_MSC_RDPS_WindDir_IsbL-0750_RLatLon0.09_PT051H.grib2 2026-05-03 15:09 713K
20260503T12Z_MSC_RDPS_WindDir_IsbL-0800_RLatLon0.09_PT051H.grib2 2026-05-03 15:09 775K
20260503T12Z_MSC_RDPS_WindDir_IsbL-0850_RLatLon0.09_PT051H.grib2 2026-05-03 15:09 865K
20260503T12Z_MSC_RDPS_WindDir_IsbL-0875_RLatLon0.09_PT051H.grib2 2026-05-03 15:09 898K
20260503T12Z_MSC_RDPS_WindDir_IsbL-0900_RLatLon0.09_PT051H.grib2 2026-05-03 15:09 913K
20260503T12Z_MSC_RDPS_WindDir_IsbL-0925_RLatLon0.09_PT051H.grib2 2026-05-03 15:09 917K
20260503T12Z_MSC_RDPS_WindDir_IsbL-0950_RLatLon0.09_PT051H.grib2 2026-05-03 15:09 910K
20260503T12Z_MSC_RDPS_WindDir_IsbL-0970_RLatLon0.09_PT051H.grib2 2026-05-03 15:09 915K
20260503T12Z_MSC_RDPS_WindDir_IsbL-0985_RLatLon0.09_PT051H.grib2 2026-05-03 15:09 923K
20260503T12Z_MSC_RDPS_WindDir_IsbL-1000_RLatLon0.09_PT051H.grib2 2026-05-03 15:09 938K
20260503T12Z_MSC_RDPS_WindDir_IsbL-1015_RLatLon0.09_PT051H.grib2 2026-05-03 15:09 956K
20260503T12Z_MSC_RDPS_WindGust-Max_AGL-10m_RLatLon0.09_PT051H.grib2 2026-05-03 15:09 958K
20260503T12Z_MSC_RDPS_WindGust-Min_AGL-10m_RLatLon0.09_PT051H.grib2 2026-05-03 15:09 1.0M
20260503T12Z_MSC_RDPS_WindGust_AGL-10m_RLatLon0.09_PT051H.grib2 2026-05-03 15:09 1.0M
20260503T12Z_MSC_RDPS_WindSpeed_AGL-10m_RLatLon0.09_PT051H.grib2 2026-05-03 15:09 857K
20260503T12Z_MSC_RDPS_WindSpeed_AGL-120m_RLatLon0.09_PT051H.grib2 2026-05-03 15:09 549K
20260503T12Z_MSC_RDPS_WindSpeed_AGL-40m_RLatLon0.09_PT051H.grib2 2026-05-03 15:09 554K
20260503T12Z_MSC_RDPS_WindSpeed_AGL-80m_RLatLon0.09_PT051H.grib2 2026-05-03 15:09 550K
20260503T12Z_MSC_RDPS_WindSpeed_IsbL-0001_RLatLon0.09_PT051H.grib2 2026-05-03 15:09 257K
20260503T12Z_MSC_RDPS_WindSpeed_IsbL-0005_RLatLon0.09_PT051H.grib2 2026-05-03 15:09 386K
20260503T12Z_MSC_RDPS_WindSpeed_IsbL-0010_RLatLon0.09_PT051H.grib2 2026-05-03 15:09 402K
20260503T12Z_MSC_RDPS_WindSpeed_IsbL-0020_RLatLon0.09_PT051H.grib2 2026-05-03 15:09 422K
20260503T12Z_MSC_RDPS_WindSpeed_IsbL-0030_RLatLon0.09_PT051H.grib2 2026-05-03 15:09 323K
20260503T12Z_MSC_RDPS_WindSpeed_IsbL-0050_RLatLon0.09_PT051H.grib2 2026-05-03 15:09 352K
20260503T12Z_MSC_RDPS_WindSpeed_IsbL-0100_RLatLon0.09_PT051H.grib2 2026-05-03 15:09 478K
20260503T12Z_MSC_RDPS_WindSpeed_IsbL-0150_RLatLon0.09_PT051H.grib2 2026-05-03 15:09 379K
20260503T12Z_MSC_RDPS_WindSpeed_IsbL-0175_RLatLon0.09_PT051H.grib2 2026-05-03 15:09 425K
20260503T12Z_MSC_RDPS_WindSpeed_IsbL-0200_RLatLon0.09_PT051H.grib2 2026-05-03 15:09 438K
20260503T12Z_MSC_RDPS_WindSpeed_IsbL-0225_RLatLon0.09_PT051H.grib2 2026-05-03 15:09 443K
20260503T12Z_MSC_RDPS_WindSpeed_IsbL-0250_RLatLon0.09_PT051H.grib2 2026-05-03 15:09 445K
20260503T12Z_MSC_RDPS_WindSpeed_IsbL-0275_RLatLon0.09_PT051H.grib2 2026-05-03 15:09 463K
20260503T12Z_MSC_RDPS_WindSpeed_IsbL-0300_RLatLon0.09_PT051H.grib2 2026-05-03 15:09 463K
20260503T12Z_MSC_RDPS_WindSpeed_IsbL-0350_RLatLon0.09_PT051H.grib2 2026-05-03 15:09 474K
20260503T12Z_MSC_RDPS_WindSpeed_IsbL-0400_RLatLon0.09_PT051H.grib2 2026-05-03 15:09 479K
20260503T12Z_MSC_RDPS_WindSpeed_IsbL-0450_RLatLon0.09_PT051H.grib2 2026-05-03 15:09 466K
20260503T12Z_MSC_RDPS_WindSpeed_IsbL-0500_RLatLon0.09_PT051H.grib2 2026-05-03 15:09 466K
20260503T12Z_MSC_RDPS_WindSpeed_IsbL-0550_RLatLon0.09_PT051H.grib2 2026-05-03 15:09 463K
20260503T12Z_MSC_RDPS_WindSpeed_IsbL-0600_RLatLon0.09_PT051H.grib2 2026-05-03 15:09 588K
20260503T12Z_MSC_RDPS_WindSpeed_IsbL-0650_RLatLon0.09_PT051H.grib2 2026-05-03 15:09 608K
20260503T12Z_MSC_RDPS_WindSpeed_IsbL-0700_RLatLon0.09_PT051H.grib2 2026-05-03 15:09 631K
20260503T12Z_MSC_RDPS_WindSpeed_IsbL-0750_RLatLon0.09_PT051H.grib2 2026-05-03 15:09 662K
20260503T12Z_MSC_RDPS_WindSpeed_IsbL-0800_RLatLon0.09_PT051H.grib2 2026-05-03 15:09 762K
20260503T12Z_MSC_RDPS_WindSpeed_IsbL-0850_RLatLon0.09_PT051H.grib2 2026-05-03 15:09 833K
20260503T12Z_MSC_RDPS_WindSpeed_IsbL-0875_RLatLon0.09_PT051H.grib2 2026-05-03 15:09 860K
20260503T12Z_MSC_RDPS_WindSpeed_IsbL-0900_RLatLon0.09_PT051H.grib2 2026-05-03 15:09 874K
20260503T12Z_MSC_RDPS_WindSpeed_IsbL-0925_RLatLon0.09_PT051H.grib2 2026-05-03 15:09 883K
20260503T12Z_MSC_RDPS_WindSpeed_IsbL-0950_RLatLon0.09_PT051H.grib2 2026-05-03 15:09 879K
20260503T12Z_MSC_RDPS_WindSpeed_IsbL-0970_RLatLon0.09_PT051H.grib2 2026-05-03 15:09 876K
20260503T12Z_MSC_RDPS_WindSpeed_IsbL-0985_RLatLon0.09_PT051H.grib2 2026-05-03 15:09 868K
20260503T12Z_MSC_RDPS_WindSpeed_IsbL-1000_RLatLon0.09_PT051H.grib2 2026-05-03 15:09 864K
20260503T12Z_MSC_RDPS_WindSpeed_IsbL-1015_RLatLon0.09_PT051H.grib2 2026-05-03 15:09 857K
20260503T12Z_MSC_RDPS_WindU_AGL-10m_RLatLon0.09_PT051H.grib2 2026-05-03 15:09 440K
20260503T12Z_MSC_RDPS_WindU_AGL-120m_RLatLon0.09_PT051H.grib2 2026-05-03 15:09 425K
20260503T12Z_MSC_RDPS_WindU_AGL-40m_RLatLon0.09_PT051H.grib2 2026-05-03 15:09 546K
20260503T12Z_MSC_RDPS_WindU_AGL-80m_RLatLon0.09_PT051H.grib2 2026-05-03 15:09 544K
20260503T12Z_MSC_RDPS_WindU_IsbL-0001_RLatLon0.09_PT051H.grib2 2026-05-03 15:09 295K
20260503T12Z_MSC_RDPS_WindU_IsbL-0005_RLatLon0.09_PT051H.grib2 2026-05-03 15:09 285K
20260503T12Z_MSC_RDPS_WindU_IsbL-0010_RLatLon0.09_PT051H.grib2 2026-05-03 15:09 297K
20260503T12Z_MSC_RDPS_WindU_IsbL-0020_RLatLon0.09_PT051H.grib2 2026-05-03 15:09 353K
20260503T12Z_MSC_RDPS_WindU_IsbL-0030_RLatLon0.09_PT051H.grib2 2026-05-03 15:09 315K
20260503T12Z_MSC_RDPS_WindU_IsbL-0050_RLatLon0.09_PT051H.grib2 2026-05-03 15:09 381K
20260503T12Z_MSC_RDPS_WindU_IsbL-0100_RLatLon0.09_PT051H.grib2 2026-05-03 15:09 335K
20260503T12Z_MSC_RDPS_WindU_IsbL-0150_RLatLon0.09_PT051H.grib2 2026-05-03 15:09 395K
20260503T12Z_MSC_RDPS_WindU_IsbL-0175_RLatLon0.09_PT051H.grib2 2026-05-03 15:09 418K
20260503T12Z_MSC_RDPS_WindU_IsbL-0200_RLatLon0.09_PT051H.grib2 2026-05-03 15:09 334K
20260503T12Z_MSC_RDPS_WindU_IsbL-0225_RLatLon0.09_PT051H.grib2 2026-05-03 15:09 337K
20260503T12Z_MSC_RDPS_WindU_IsbL-0250_RLatLon0.09_PT051H.grib2 2026-05-03 15:09 337K
20260503T12Z_MSC_RDPS_WindU_IsbL-0275_RLatLon0.09_PT051H.grib2 2026-05-03 15:09 352K
20260503T12Z_MSC_RDPS_WindU_IsbL-0300_RLatLon0.09_PT051H.grib2 2026-05-03 15:09 350K
20260503T12Z_MSC_RDPS_WindU_IsbL-0350_RLatLon0.09_PT051H.grib2 2026-05-03 15:09 359K
20260503T12Z_MSC_RDPS_WindU_IsbL-0400_RLatLon0.09_PT051H.grib2 2026-05-03 15:09 363K
20260503T12Z_MSC_RDPS_WindU_IsbL-0450_RLatLon0.09_PT051H.grib2 2026-05-03 15:09 470K
20260503T12Z_MSC_RDPS_WindU_IsbL-0500_RLatLon0.09_PT051H.grib2 2026-05-03 15:09 471K
20260503T12Z_MSC_RDPS_WindU_IsbL-0550_RLatLon0.09_PT051H.grib2 2026-05-03 15:09 469K
20260503T12Z_MSC_RDPS_WindU_IsbL-0600_RLatLon0.09_PT051H.grib2 2026-05-03 15:09 477K
20260503T12Z_MSC_RDPS_WindU_IsbL-0650_RLatLon0.09_PT051H.grib2 2026-05-03 15:09 495K
20260503T12Z_MSC_RDPS_WindU_IsbL-0700_RLatLon0.09_PT051H.grib2 2026-05-03 15:09 501K
20260503T12Z_MSC_RDPS_WindU_IsbL-0750_RLatLon0.09_PT051H.grib2 2026-05-03 15:09 529K
20260503T12Z_MSC_RDPS_WindU_IsbL-0800_RLatLon0.09_PT051H.grib2 2026-05-03 15:09 577K
20260503T12Z_MSC_RDPS_WindU_IsbL-0850_RLatLon0.09_PT051H.grib2 2026-05-03 15:09 639K
20260503T12Z_MSC_RDPS_WindU_IsbL-0875_RLatLon0.09_PT051H.grib2 2026-05-03 15:09 668K
20260503T12Z_MSC_RDPS_WindU_IsbL-0900_RLatLon0.09_PT051H.grib2 2026-05-03 15:09 671K
20260503T12Z_MSC_RDPS_WindU_IsbL-0925_RLatLon0.09_PT051H.grib2 2026-05-03 15:09 675K
20260503T12Z_MSC_RDPS_WindU_IsbL-0950_RLatLon0.09_PT051H.grib2 2026-05-03 15:09 669K
20260503T12Z_MSC_RDPS_WindU_IsbL-0970_RLatLon0.09_PT051H.grib2 2026-05-03 15:09 664K
20260503T12Z_MSC_RDPS_WindU_IsbL-0985_RLatLon0.09_PT051H.grib2 2026-05-03 15:09 801K
20260503T12Z_MSC_RDPS_WindU_IsbL-1000_RLatLon0.09_PT051H.grib2 2026-05-03 15:09 798K
20260503T12Z_MSC_RDPS_WindU_IsbL-1015_RLatLon0.09_PT051H.grib2 2026-05-03 15:09 794K
20260503T12Z_MSC_RDPS_WindV_AGL-10m_RLatLon0.09_PT051H.grib2 2026-05-03 15:09 442K
20260503T12Z_MSC_RDPS_WindV_AGL-120m_RLatLon0.09_PT051H.grib2 2026-05-03 15:09 425K
20260503T12Z_MSC_RDPS_WindV_AGL-40m_RLatLon0.09_PT051H.grib2 2026-05-03 15:09 547K
20260503T12Z_MSC_RDPS_WindV_AGL-80m_RLatLon0.09_PT051H.grib2 2026-05-03 15:09 544K
20260503T12Z_MSC_RDPS_WindV_IsbL-0001_RLatLon0.09_PT051H.grib2 2026-05-03 15:09 251K
20260503T12Z_MSC_RDPS_WindV_IsbL-0005_RLatLon0.09_PT051H.grib2 2026-05-03 15:09 289K
20260503T12Z_MSC_RDPS_WindV_IsbL-0010_RLatLon0.09_PT051H.grib2 2026-05-03 15:09 301K
20260503T12Z_MSC_RDPS_WindV_IsbL-0020_RLatLon0.09_PT051H.grib2 2026-05-03 15:09 317K
20260503T12Z_MSC_RDPS_WindV_IsbL-0030_RLatLon0.09_PT051H.grib2 2026-05-03 15:09 355K
20260503T12Z_MSC_RDPS_WindV_IsbL-0050_RLatLon0.09_PT051H.grib2 2026-05-03 15:09 347K
20260503T12Z_MSC_RDPS_WindV_IsbL-0100_RLatLon0.09_PT051H.grib2 2026-05-03 15:09 334K
20260503T12Z_MSC_RDPS_WindV_IsbL-0150_RLatLon0.09_PT051H.grib2 2026-05-03 15:09 393K
20260503T12Z_MSC_RDPS_WindV_IsbL-0175_RLatLon0.09_PT051H.grib2 2026-05-03 15:09 321K
20260503T12Z_MSC_RDPS_WindV_IsbL-0200_RLatLon0.09_PT051H.grib2 2026-05-03 15:09 332K
20260503T12Z_MSC_RDPS_WindV_IsbL-0225_RLatLon0.09_PT051H.grib2 2026-05-03 15:09 336K
20260503T12Z_MSC_RDPS_WindV_IsbL-0250_RLatLon0.09_PT051H.grib2 2026-05-03 15:09 364K
20260503T12Z_MSC_RDPS_WindV_IsbL-0275_RLatLon0.09_PT051H.grib2 2026-05-03 15:09 376K
20260503T12Z_MSC_RDPS_WindV_IsbL-0300_RLatLon0.09_PT051H.grib2 2026-05-03 15:09 350K
20260503T12Z_MSC_RDPS_WindV_IsbL-0350_RLatLon0.09_PT051H.grib2 2026-05-03 15:09 359K
20260503T12Z_MSC_RDPS_WindV_IsbL-0400_RLatLon0.09_PT051H.grib2 2026-05-03 15:09 363K
20260503T12Z_MSC_RDPS_WindV_IsbL-0450_RLatLon0.09_PT051H.grib2 2026-05-03 15:09 469K
20260503T12Z_MSC_RDPS_WindV_IsbL-0500_RLatLon0.09_PT051H.grib2 2026-05-03 15:09 469K
20260503T12Z_MSC_RDPS_WindV_IsbL-0550_RLatLon0.09_PT051H.grib2 2026-05-03 15:09 468K
20260503T12Z_MSC_RDPS_WindV_IsbL-0600_RLatLon0.09_PT051H.grib2 2026-05-03 15:09 475K
20260503T12Z_MSC_RDPS_WindV_IsbL-0650_RLatLon0.09_PT051H.grib2 2026-05-03 15:09 476K
20260503T12Z_MSC_RDPS_WindV_IsbL-0700_RLatLon0.09_PT051H.grib2 2026-05-03 15:09 512K
20260503T12Z_MSC_RDPS_WindV_IsbL-0750_RLatLon0.09_PT051H.grib2 2026-05-03 15:09 538K
20260503T12Z_MSC_RDPS_WindV_IsbL-0800_RLatLon0.09_PT051H.grib2 2026-05-03 15:09 583K
20260503T12Z_MSC_RDPS_WindV_IsbL-0850_RLatLon0.09_PT051H.grib2 2026-05-03 15:09 634K
20260503T12Z_MSC_RDPS_WindV_IsbL-0875_RLatLon0.09_PT051H.grib2 2026-05-03 15:09 657K
20260503T12Z_MSC_RDPS_WindV_IsbL-0900_RLatLon0.09_PT051H.grib2 2026-05-03 15:09 668K
20260503T12Z_MSC_RDPS_WindV_IsbL-0925_RLatLon0.09_PT051H.grib2 2026-05-03 15:09 673K
20260503T12Z_MSC_RDPS_WindV_IsbL-0950_RLatLon0.09_PT051H.grib2 2026-05-03 15:09 668K
20260503T12Z_MSC_RDPS_WindV_IsbL-0970_RLatLon0.09_PT051H.grib2 2026-05-03 15:09 664K
20260503T12Z_MSC_RDPS_WindV_IsbL-0985_RLatLon0.09_PT051H.grib2 2026-05-03 15:09 663K
20260503T12Z_MSC_RDPS_WindV_IsbL-1000_RLatLon0.09_PT051H.grib2 2026-05-03 15:09 800K
20260503T12Z_MSC_RDPS_WindV_IsbL-1015_RLatLon0.09_PT051H.grib2 2026-05-03 15:09 794K